Location: Goettingen
(51.5300°N, 9.9433°E)
Time: 19:08:09
(UTC+02:00)

X-37B - Pass Details

Date: 02 October 2021
Orbit: 385 x 389 km, 45.0° (Epoch: 13 October)

Event Time Altitude Azimuth Distance (km) Brightness Sun altitude
Exits shadow 05:20:32 16° 160° (SSE) 1,123 2.9 -19.5°
Drops below altitude 10° 05:21:36 10° 144° (SE) 1,411 3.6 -19.4°
Sets 05:24:00 0° 127° (SE) 2,264 5.0 -19.0°
